Year,Month,Day,Hour,Minute,Value (Times are PST for temperature in C)
2009,10,04,00,00,10.60
2009,10,04,00,01,10.60
2009,10,04,00,02,10.60
2009,10,04,00,03,10.60
2009,10,04,00,04,10.60
2009,10,04,00,05,10.60
2009,10,04,00,06,10.60
2009,10,04,00,07,10.60
2009,10,04,00,08,10.60
2009,10,04,00,09,10.50
2009,10,04,00,10,10.50
2009,10,04,00,11,10.60
2009,10,04,00,12,10.60
2009,10,04,00,13,10.50
2009,10,04,00,14,10.50
2009,10,04,00,15,10.50
2009,10,04,00,16,10.50
2009,10,04,00,17,10.40
2009,10,04,00,18,10.40
2009,10,04,00,19,10.40
2009,10,04,00,20,10.40
2009,10,04,00,21,10.40
2009,10,04,00,22,10.30
2009,10,04,00,23,10.30
2009,10,04,00,24,10.30
2009,10,04,00,25,10.30
2009,10,04,00,26,10.30
2009,10,04,00,27,10.30
2009,10,04,00,28,10.30
2009,10,04,00,29,10.30
2009,10,04,00,30,10.30
2009,10,04,00,31,10.30
2009,10,04,00,32,10.30
2009,10,04,00,33,10.30
2009,10,04,00,34,10.30
2009,10,04,00,35,10.30
2009,10,04,00,36,10.30
2009,10,04,00,37,10.40
2009,10,04,00,38,10.40
2009,10,04,00,39,10.40
2009,10,04,00,40,10.40
2009,10,04,00,41,10.40
2009,10,04,00,42,10.40
2009,10,04,00,43,10.40
2009,10,04,00,44,10.40
2009,10,04,00,45,10.40
2009,10,04,00,46,10.40
2009,10,04,00,47,10.40
2009,10,04,00,48,10.40
2009,10,04,00,49,10.40
2009,10,04,00,50,10.40
2009,10,04,00,51,10.40
2009,10,04,00,52,10.40
2009,10,04,00,53,10.40
2009,10,04,00,54,10.40
2009,10,04,00,55,10.40
2009,10,04,00,56,10.40
2009,10,04,00,57,10.40
2009,10,04,00,58,10.40
2009,10,04,00,59,10.40
2009,10,04,01,00,10.40
2009,10,04,01,01,10.40
2009,10,04,01,02,10.40
2009,10,04,01,03,10.40
2009,10,04,01,04,10.30
2009,10,04,01,05,10.30
2009,10,04,01,06,10.30
2009,10,04,01,07,10.30
2009,10,04,01,08,10.30
2009,10,04,01,09,10.30
2009,10,04,01,10,10.30
2009,10,04,01,11,10.30
2009,10,04,01,12,10.30
2009,10,04,01,13,10.30
2009,10,04,01,14,10.30
2009,10,04,01,15,10.30
2009,10,04,01,16,10.30
2009,10,04,01,17,10.30
2009,10,04,01,18,10.30
2009,10,04,01,19,10.30
2009,10,04,01,20,10.30
2009,10,04,01,21,10.30
2009,10,04,01,22,10.30
2009,10,04,01,23,10.30
2009,10,04,01,24,10.30
2009,10,04,01,25,10.30
2009,10,04,01,26,10.30
2009,10,04,01,27,10.30
2009,10,04,01,28,10.30
2009,10,04,01,29,10.30
2009,10,04,01,30,10.30
2009,10,04,01,31,10.30
2009,10,04,01,32,10.30
2009,10,04,01,33,10.30
2009,10,04,01,34,10.30
2009,10,04,01,35,10.30
2009,10,04,01,36,10.30
2009,10,04,01,37,10.30
2009,10,04,01,38,10.30
2009,10,04,01,39,10.30
2009,10,04,01,40,10.30
2009,10,04,01,41,10.30
2009,10,04,01,42,10.30
2009,10,04,01,43,10.30
2009,10,04,01,44,10.30
2009,10,04,01,45,10.30
2009,10,04,01,46,10.40
2009,10,04,01,47,10.40
2009,10,04,01,48,10.30
2009,10,04,01,49,10.30
2009,10,04,01,50,10.30
2009,10,04,01,51,10.30
2009,10,04,01,52,10.30
2009,10,04,01,53,10.30
2009,10,04,01,54,10.30
2009,10,04,01,55,10.30
2009,10,04,01,56,10.30
2009,10,04,01,57,10.30
2009,10,04,01,58,10.30
2009,10,04,01,59,10.30
2009,10,04,02,00,10.30
2009,10,04,02,01,10.30
2009,10,04,02,02,10.30
2009,10,04,02,03,10.30
2009,10,04,02,04,10.30
2009,10,04,02,05,10.30
2009,10,04,02,06,10.30
2009,10,04,02,07,10.30
2009,10,04,02,08,10.20
2009,10,04,02,09,10.20
2009,10,04,02,10,10.20
2009,10,04,02,11,10.20
2009,10,04,02,12,10.20
2009,10,04,02,13,10.20
2009,10,04,02,14,10.20
2009,10,04,02,15,10.20
2009,10,04,02,16,10.20
2009,10,04,02,17,10.10
2009,10,04,02,18,10.10
2009,10,04,02,19,10.10
2009,10,04,02,20,10.10
2009,10,04,02,21,10.10
2009,10,04,02,22,10.10
2009,10,04,02,23,10.10
2009,10,04,02,24,10.00
2009,10,04,02,25,10.00
2009,10,04,02,26,10.00
2009,10,04,02,27,10.00
2009,10,04,02,28,10.00
2009,10,04,02,29,10.00
2009,10,04,02,30,10.00
2009,10,04,02,31,10.00
2009,10,04,02,32,10.00
2009,10,04,02,33,10.10
2009,10,04,02,34,10.00
2009,10,04,02,35,10.10
2009,10,04,02,36,10.10
2009,10,04,02,37,10.10
2009,10,04,02,38,10.10
2009,10,04,02,39,10.10
2009,10,04,02,40,10.10
2009,10,04,02,41,10.10
2009,10,04,02,42,10.10
2009,10,04,02,43,10.20
2009,10,04,02,44,10.20
2009,10,04,02,45,10.20
2009,10,04,02,46,10.20
2009,10,04,02,47,10.30
2009,10,04,02,48,10.30
2009,10,04,02,49,10.30
2009,10,04,02,50,10.30
2009,10,04,02,51,10.40
2009,10,04,02,52,10.40
2009,10,04,02,53,10.40
2009,10,04,02,54,10.40
2009,10,04,02,55,10.40
2009,10,04,02,56,10.40
2009,10,04,02,57,10.30
2009,10,04,02,58,10.30
2009,10,04,02,59,10.30
2009,10,04,03,00,10.30
2009,10,04,03,01,10.30
2009,10,04,03,02,10.20
2009,10,04,03,03,10.20
2009,10,04,03,04,10.20
2009,10,04,03,05,10.20
2009,10,04,03,06,10.20
2009,10,04,03,07,10.20
2009,10,04,03,08,10.20
2009,10,04,03,09,10.20
2009,10,04,03,10,10.10
2009,10,04,03,11,10.10
2009,10,04,03,12,10.10
2009,10,04,03,13,10.10
2009,10,04,03,14,10.10
2009,10,04,03,15,10.10
2009,10,04,03,16,10.10
2009,10,04,03,17,10.10
2009,10,04,03,18,10.10
2009,10,04,03,19,10.10
2009,10,04,03,20,10.10
2009,10,04,03,21,10.10
2009,10,04,03,22,10.10
2009,10,04,03,23,10.10
2009,10,04,03,24,10.10
2009,10,04,03,25,10.10
2009,10,04,03,26,10.00
2009,10,04,03,27,10.00
2009,10,04,03,28,10.00
2009,10,04,03,29,10.00
2009,10,04,03,30,10.00
2009,10,04,03,31,10.10
2009,10,04,03,32,10.10
2009,10,04,03,33,10.10
2009,10,04,03,34,10.10
2009,10,04,03,35,10.10
2009,10,04,03,36,10.20
2009,10,04,03,37,10.20
2009,10,04,03,38,10.20
2009,10,04,03,39,10.20
2009,10,04,03,40,10.20
2009,10,04,03,41,10.20
2009,10,04,03,42,10.20
2009,10,04,03,43,10.20
2009,10,04,03,44,10.10
2009,10,04,03,45,10.10
2009,10,04,03,46,10.10
2009,10,04,03,47,10.10
2009,10,04,03,48,10.10
2009,10,04,03,49,10.10
2009,10,04,03,50,10.10
2009,10,04,03,51,10.00
2009,10,04,03,52,10.10
2009,10,04,03,53,10.10
2009,10,04,03,54,10.10
2009,10,04,03,55,10.10
2009,10,04,03,56,10.10
2009,10,04,03,57,10.10
2009,10,04,03,58,10.10
2009,10,04,03,59,10.10
2009,10,04,04,00,10.10
2009,10,04,04,01,10.10
2009,10,04,04,02,10.10
2009,10,04,04,03,10.10
2009,10,04,04,04,10.10
2009,10,04,04,05,10.20
2009,10,04,04,06,10.20
2009,10,04,04,07,10.30
2009,10,04,04,08,10.30
2009,10,04,04,09,10.30
2009,10,04,04,10,10.40
2009,10,04,04,11,10.40
2009,10,04,04,12,10.40
2009,10,04,04,13,10.40
2009,10,04,04,14,10.50
2009,10,04,04,15,10.50
2009,10,04,04,16,10.60
2009,10,04,04,17,10.60
2009,10,04,04,18,10.60
2009,10,04,04,19,10.60
2009,10,04,04,20,10.60
2009,10,04,04,21,10.60
2009,10,04,04,22,10.60
2009,10,04,04,23,10.60
2009,10,04,04,24,10.60
2009,10,04,04,25,10.60
2009,10,04,04,26,10.60
2009,10,04,04,27,10.60
2009,10,04,04,28,10.50
2009,10,04,04,29,10.50
2009,10,04,04,30,10.50
2009,10,04,04,31,10.50
2009,10,04,04,32,10.40
2009,10,04,04,33,10.40
2009,10,04,04,34,10.50
2009,10,04,04,35,10.40
2009,10,04,04,36,10.50
2009,10,04,04,37,10.40
2009,10,04,04,38,10.40
2009,10,04,04,39,10.40
2009,10,04,04,40,10.40
2009,10,04,04,41,10.50
2009,10,04,04,42,10.40
2009,10,04,04,43,10.40
2009,10,04,04,44,10.40
2009,10,04,04,45,10.40
2009,10,04,04,46,10.40
2009,10,04,04,47,10.40
2009,10,04,04,48,10.40
2009,10,04,04,49,10.40
2009,10,04,04,50,10.40
2009,10,04,04,51,10.40
2009,10,04,04,52,10.50
2009,10,04,04,53,10.50
2009,10,04,04,54,10.40
2009,10,04,04,55,10.40
2009,10,04,04,56,10.40
2009,10,04,04,57,10.50
2009,10,04,04,58,10.50
2009,10,04,04,59,10.50
2009,10,04,05,00,10.50
2009,10,04,05,01,10.50
2009,10,04,05,02,10.50
2009,10,04,05,03,10.50
2009,10,04,05,04,10.50
2009,10,04,05,05,10.50
2009,10,04,05,06,10.40
2009,10,04,05,07,10.40
2009,10,04,05,08,10.40
2009,10,04,05,09,10.40
2009,10,04,05,10,10.40
2009,10,04,05,11,10.40
2009,10,04,05,12,10.40
2009,10,04,05,13,10.40
2009,10,04,05,14,10.40
2009,10,04,05,15,10.40
2009,10,04,05,16,10.30
2009,10,04,05,17,10.30
2009,10,04,05,18,10.30
2009,10,04,05,19,10.30
2009,10,04,05,20,10.30
2009,10,04,05,21,10.30
2009,10,04,05,22,10.30
2009,10,04,05,23,10.30
2009,10,04,05,24,10.30
2009,10,04,05,25,10.30
2009,10,04,05,26,10.30
2009,10,04,05,27,10.30
2009,10,04,05,28,10.30
2009,10,04,05,29,10.30
2009,10,04,05,30,10.30
2009,10,04,05,31,10.30
2009,10,04,05,32,10.30
2009,10,04,05,33,10.30
2009,10,04,05,34,10.30
2009,10,04,05,35,10.30
2009,10,04,05,36,10.30
2009,10,04,05,37,10.20
2009,10,04,05,38,10.20
2009,10,04,05,39,10.20
2009,10,04,05,40,10.20
2009,10,04,05,41,10.10
2009,10,04,05,42,10.10
2009,10,04,05,43,10.10
2009,10,04,05,44,10.10
2009,10,04,05,45,10.10
2009,10,04,05,46,10.10
2009,10,04,05,47,10.10
2009,10,04,05,48,10.10
2009,10,04,05,49,10.10
2009,10,04,05,50,10.10
2009,10,04,05,51,10.00
2009,10,04,05,52,10.00
2009,10,04,05,53,10.00
2009,10,04,05,54,10.00
2009,10,04,05,55,10.00
2009,10,04,05,56,10.10
2009,10,04,05,57,10.10
2009,10,04,05,58,10.10
2009,10,04,05,59,10.10
2009,10,04,06,00,10.10
2009,10,04,06,01,10.10
2009,10,04,06,02,10.10
2009,10,04,06,03,10.10
2009,10,04,06,04,10.10
2009,10,04,06,05,10.10
2009,10,04,06,06,10.10
2009,10,04,06,07,10.10
2009,10,04,06,08,10.10
2009,10,04,06,09,10.10
2009,10,04,06,10,10.10
2009,10,04,06,11,10.10
2009,10,04,06,12,10.10
2009,10,04,06,13,10.10
2009,10,04,06,14,10.10
2009,10,04,06,15,10.10
2009,10,04,06,16,10.10
2009,10,04,06,17,10.20
2009,10,04,06,18,10.10
2009,10,04,06,19,10.10
2009,10,04,06,20,10.10
2009,10,04,06,21,10.10
2009,10,04,06,22,10.10
2009,10,04,06,23,10.10
2009,10,04,06,24,10.10
2009,10,04,06,25,10.10
2009,10,04,06,26,10.10
2009,10,04,06,27,10.10
2009,10,04,06,28,10.10
2009,10,04,06,29,10.10
2009,10,04,06,30,10.10
2009,10,04,06,31,10.10
2009,10,04,06,32,10.00
2009,10,04,06,33,10.00
2009,10,04,06,34,10.00
2009,10,04,06,35,10.00
2009,10,04,06,36,9.90
2009,10,04,06,37,9.90
2009,10,04,06,38,9.90
2009,10,04,06,39,9.90
2009,10,04,06,40,9.90
2009,10,04,06,41,9.90
2009,10,04,06,42,9.90
2009,10,04,06,43,9.90
2009,10,04,06,44,9.90
2009,10,04,06,45,9.90
2009,10,04,06,46,9.90
2009,10,04,06,47,10.00
2009,10,04,06,48,10.10
2009,10,04,06,49,10.10
2009,10,04,06,50,10.10
2009,10,04,06,51,10.20
2009,10,04,06,52,10.20
2009,10,04,06,53,10.20
2009,10,04,06,54,10.20
2009,10,04,06,55,10.20
2009,10,04,06,56,10.20
2009,10,04,06,57,10.20
2009,10,04,06,58,10.20
2009,10,04,06,59,10.20
2009,10,04,07,00,10.20
2009,10,04,07,01,10.20
2009,10,04,07,02,10.20
2009,10,04,07,03,10.20
2009,10,04,07,04,10.10
2009,10,04,07,05,10.10
2009,10,04,07,06,10.10
2009,10,04,07,07,10.10
2009,10,04,07,08,10.10
2009,10,04,07,09,10.10
2009,10,04,07,10,10.10
2009,10,04,07,11,10.10
2009,10,04,07,12,10.10
2009,10,04,07,13,10.20
2009,10,04,07,14,10.20
2009,10,04,07,15,10.20
2009,10,04,07,16,10.20
2009,10,04,07,17,10.10
2009,10,04,07,18,10.10
2009,10,04,07,19,10.10
2009,10,04,07,20,10.10
2009,10,04,07,21,10.10
2009,10,04,07,22,10.10
2009,10,04,07,23,10.00
2009,10,04,07,24,10.00
2009,10,04,07,25,10.00
2009,10,04,07,26,10.00
2009,10,04,07,27,10.00
2009,10,04,07,28,10.00
2009,10,04,07,29,10.00
2009,10,04,07,30,9.90
2009,10,04,07,31,9.90
2009,10,04,07,32,9.90
2009,10,04,07,33,9.90
2009,10,04,07,34,9.90
2009,10,04,07,35,9.90
2009,10,04,07,36,9.90
2009,10,04,07,37,9.90
2009,10,04,07,38,9.90
2009,10,04,07,39,9.90
2009,10,04,07,40,9.90
2009,10,04,07,41,9.90
2009,10,04,07,42,10.00
2009,10,04,07,43,10.00
2009,10,04,07,44,10.00
2009,10,04,07,45,10.10
2009,10,04,07,46,10.10
2009,10,04,07,47,10.10
2009,10,04,07,48,10.10
2009,10,04,07,49,10.20
2009,10,04,07,50,10.20
2009,10,04,07,51,10.20
2009,10,04,07,52,10.20
2009,10,04,07,53,10.30
2009,10,04,07,54,10.30
2009,10,04,07,55,10.30
2009,10,04,07,56,10.30
2009,10,04,07,57,10.30
2009,10,04,07,58,10.40
2009,10,04,07,59,10.40
2009,10,04,08,00,10.40
2009,10,04,08,01,10.40
2009,10,04,08,02,10.40
2009,10,04,08,03,10.40
2009,10,04,08,04,10.40
2009,10,04,08,05,10.40
2009,10,04,08,06,10.40
2009,10,04,08,07,10.40
2009,10,04,08,08,10.40
2009,10,04,08,09,10.40
2009,10,04,08,10,10.40
2009,10,04,08,11,10.50
2009,10,04,08,12,10.50
2009,10,04,08,13,10.60
2009,10,04,08,14,10.70
2009,10,04,08,15,10.80
2009,10,04,08,16,10.90
2009,10,04,08,17,11.00
2009,10,04,08,18,11.10
2009,10,04,08,19,11.20
2009,10,04,08,20,11.30
2009,10,04,08,21,11.30
2009,10,04,08,22,11.40
2009,10,04,08,23,11.50
2009,10,04,08,24,11.60
2009,10,04,08,25,11.60
2009,10,04,08,26,11.60
2009,10,04,08,27,11.70
2009,10,04,08,28,11.70
2009,10,04,08,29,11.80
2009,10,04,08,30,11.80
2009,10,04,08,31,11.80
2009,10,04,08,32,11.80
2009,10,04,08,33,11.80
2009,10,04,08,34,11.80
2009,10,04,08,35,11.80
2009,10,04,08,36,11.90
2009,10,04,08,37,11.90
2009,10,04,08,38,12.00
2009,10,04,08,39,12.00
2009,10,04,08,40,12.10
2009,10,04,08,41,12.20
2009,10,04,08,42,12.30
2009,10,04,08,43,12.40
2009,10,04,08,44,12.50
2009,10,04,08,45,12.50
2009,10,04,08,46,12.60
2009,10,04,08,47,12.70
2009,10,04,08,48,12.70
2009,10,04,08,49,12.80
2009,10,04,08,50,12.80
2009,10,04,08,51,12.90
2009,10,04,08,52,13.00
2009,10,04,08,53,13.00
2009,10,04,08,54,13.10
2009,10,04,08,55,13.20
2009,10,04,08,56,13.20
2009,10,04,08,57,13.30
2009,10,04,08,58,13.30
2009,10,04,08,59,13.40
2009,10,04,09,00,13.40
2009,10,04,09,01,13.50
2009,10,04,09,02,13.60
2009,10,04,09,03,13.60
2009,10,04,09,04,13.70
2009,10,04,09,05,13.70
2009,10,04,09,06,13.80
2009,10,04,09,07,13.80
2009,10,04,09,08,13.90
2009,10,04,09,09,13.90
2009,10,04,09,10,14.00
2009,10,04,09,11,14.10
2009,10,04,09,12,14.10
2009,10,04,09,13,14.10
2009,10,04,09,14,14.10
2009,10,04,09,15,14.20
2009,10,04,09,16,14.20
2009,10,04,09,17,14.20
2009,10,04,09,18,14.20
2009,10,04,09,19,14.30
2009,10,04,09,20,14.30
2009,10,04,09,21,14.40
2009,10,04,09,22,14.40
2009,10,04,09,23,14.50
2009,10,04,09,24,14.60
2009,10,04,09,25,14.60
2009,10,04,09,26,14.60
2009,10,04,09,27,14.70
2009,10,04,09,28,14.70
2009,10,04,09,29,14.70
2009,10,04,09,30,14.70
2009,10,04,09,31,14.60
2009,10,04,09,32,14.60
2009,10,04,09,33,14.60
2009,10,04,09,34,14.70
2009,10,04,09,35,14.70
2009,10,04,09,36,14.70
2009,10,04,09,37,14.80
2009,10,04,09,38,14.80
2009,10,04,09,39,14.80
2009,10,04,09,40,14.80
2009,10,04,09,41,14.80
2009,10,04,09,42,14.80
2009,10,04,09,43,14.80
2009,10,04,09,44,14.80
2009,10,04,09,45,14.80
2009,10,04,09,46,14.80
2009,10,04,09,47,14.70
2009,10,04,09,48,14.70
2009,10,04,09,49,14.60
2009,10,04,09,50,14.60
2009,10,04,09,51,14.60
2009,10,04,09,52,14.60
2009,10,04,09,53,14.60
2009,10,04,09,54,14.60
2009,10,04,09,55,14.60
2009,10,04,09,56,14.60
2009,10,04,09,57,14.70
2009,10,04,09,58,14.70
2009,10,04,09,59,14.60
2009,10,04,10,00,14.60
2009,10,04,10,01,14.50
2009,10,04,10,02,14.40
2009,10,04,10,03,14.40
2009,10,04,10,04,14.40
2009,10,04,10,05,14.40
2009,10,04,10,06,14.40
2009,10,04,10,07,14.40
2009,10,04,10,08,14.50
2009,10,04,10,09,14.50
2009,10,04,10,10,14.50
2009,10,04,10,11,14.60
2009,10,04,10,12,14.60
2009,10,04,10,13,14.60
2009,10,04,10,14,14.60
2009,10,04,10,15,14.60
2009,10,04,10,16,14.60
2009,10,04,10,17,14.60
2009,10,04,10,18,14.70
2009,10,04,10,19,14.70
2009,10,04,10,20,14.70
2009,10,04,10,21,14.80
2009,10,04,10,22,14.80
2009,10,04,10,23,14.80
2009,10,04,10,24,14.80
2009,10,04,10,25,14.90
2009,10,04,10,26,15.00
2009,10,04,10,27,15.00
2009,10,04,10,28,15.00
2009,10,04,10,29,15.00
2009,10,04,10,30,15.10
2009,10,04,10,31,15.10
2009,10,04,10,32,15.20
2009,10,04,10,33,15.20
2009,10,04,10,34,15.20
2009,10,04,10,35,15.20
2009,10,04,10,36,15.20
2009,10,04,10,37,15.20
2009,10,04,10,38,15.10
2009,10,04,10,39,15.00
2009,10,04,10,40,15.00
2009,10,04,10,41,15.00
2009,10,04,10,42,15.00
2009,10,04,10,43,15.00
2009,10,04,10,44,15.00
2009,10,04,10,45,15.10
2009,10,04,10,46,15.00
2009,10,04,10,47,15.00
2009,10,04,10,48,15.00
2009,10,04,10,49,15.10
2009,10,04,10,50,15.20
2009,10,04,10,51,15.20
2009,10,04,10,52,15.30
2009,10,04,10,53,15.40
2009,10,04,10,54,15.40
2009,10,04,10,55,15.40
2009,10,04,10,56,15.40
2009,10,04,10,57,15.30
2009,10,04,10,58,15.30
2009,10,04,10,59,15.30
2009,10,04,11,00,15.20
2009,10,04,11,01,15.20
2009,10,04,11,02,15.20
2009,10,04,11,03,15.20
2009,10,04,11,04,15.20
2009,10,04,11,05,15.20
2009,10,04,11,06,15.20
2009,10,04,11,07,15.30
2009,10,04,11,08,15.30
2009,10,04,11,09,15.30
2009,10,04,11,10,15.30
2009,10,04,11,11,15.30
2009,10,04,11,12,15.30
2009,10,04,11,13,15.30
2009,10,04,11,14,15.30
2009,10,04,11,15,15.20
2009,10,04,11,16,15.20
2009,10,04,11,17,15.20
2009,10,04,11,18,15.20
2009,10,04,11,19,15.20
2009,10,04,11,20,15.20
2009,10,04,11,21,15.30
2009,10,04,11,22,15.30
2009,10,04,11,23,15.30
2009,10,04,11,24,15.30
2009,10,04,11,25,15.30
2009,10,04,11,26,15.20
2009,10,04,11,27,15.20
2009,10,04,11,28,15.20
2009,10,04,11,29,15.10
2009,10,04,11,30,15.00
2009,10,04,11,31,15.10
2009,10,04,11,32,15.20
2009,10,04,11,33,15.20
2009,10,04,11,34,15.30
2009,10,04,11,35,15.30
2009,10,04,11,36,15.20
2009,10,04,11,37,15.10
2009,10,04,11,38,15.00
2009,10,04,11,39,15.00
2009,10,04,11,40,15.00
2009,10,04,11,41,15.00
2009,10,04,11,42,15.00
2009,10,04,11,43,15.00
2009,10,04,11,44,14.90
2009,10,04,11,45,14.90
2009,10,04,11,46,14.90
2009,10,04,11,47,14.90
2009,10,04,11,48,14.90
2009,10,04,11,49,15.00
2009,10,04,11,50,15.00
2009,10,04,11,51,14.90
2009,10,04,11,52,14.80
2009,10,04,11,53,14.80
2009,10,04,11,54,14.90
2009,10,04,11,55,14.90
2009,10,04,11,56,15.00
2009,10,04,11,57,15.00
2009,10,04,11,58,15.00
2009,10,04,11,59,15.00
2009,10,04,12,00,15.00
2009,10,04,12,01,15.00
2009,10,04,12,02,15.00
2009,10,04,12,03,15.00
2009,10,04,12,04,15.00
2009,10,04,12,05,15.00
2009,10,04,12,06,15.00
2009,10,04,12,07,15.00
2009,10,04,12,08,15.00
2009,10,04,12,09,15.00
2009,10,04,12,10,15.00
2009,10,04,12,11,15.00
2009,10,04,12,12,15.10
2009,10,04,12,13,15.20
2009,10,04,12,14,15.20
2009,10,04,12,15,15.20
2009,10,04,12,16,15.30
2009,10,04,12,17,15.30
2009,10,04,12,18,15.30
2009,10,04,12,19,15.20
2009,10,04,12,20,15.10
2009,10,04,12,21,15.00
2009,10,04,12,22,15.00
2009,10,04,12,23,15.00
2009,10,04,12,24,15.00
2009,10,04,12,25,15.00
2009,10,04,12,26,15.00
2009,10,04,12,27,15.00
2009,10,04,12,28,15.00
2009,10,04,12,29,15.00
2009,10,04,12,30,15.00
2009,10,04,12,31,15.20
2009,10,04,12,32,15.30
2009,10,04,12,33,15.30
2009,10,04,12,34,15.40
2009,10,04,12,35,15.50
2009,10,04,12,36,15.60
2009,10,04,12,37,15.60
2009,10,04,12,38,15.60
2009,10,04,12,39,15.60
2009,10,04,12,40,15.70
2009,10,04,12,41,15.70
2009,10,04,12,42,15.70
2009,10,04,12,43,15.60
2009,10,04,12,44,15.50
2009,10,04,12,45,15.40
2009,10,04,12,46,15.30
2009,10,04,12,47,15.30
2009,10,04,12,48,15.30
2009,10,04,12,49,15.30
2009,10,04,12,50,15.20
2009,10,04,12,51,15.20
2009,10,04,12,52,15.20
2009,10,04,12,53,15.10
2009,10,04,12,54,15.10
2009,10,04,12,55,15.20
2009,10,04,12,56,15.10
2009,10,04,12,57,15.20
2009,10,04,12,58,15.20
2009,10,04,12,59,15.20
2009,10,04,13,00,15.30
2009,10,04,13,01,15.30
2009,10,04,13,02,15.40
2009,10,04,13,03,15.40
2009,10,04,13,04,15.40
2009,10,04,13,05,15.40
2009,10,04,13,06,15.40
2009,10,04,13,07,15.40
2009,10,04,13,08,15.40
2009,10,04,13,09,15.40
2009,10,04,13,10,15.40
2009,10,04,13,11,15.40
2009,10,04,13,12,15.40
2009,10,04,13,13,15.40
2009,10,04,13,14,15.30
2009,10,04,13,15,15.30
2009,10,04,13,16,15.30
2009,10,04,13,17,15.40
2009,10,04,13,18,15.40
2009,10,04,13,19,15.50
2009,10,04,13,20,15.60
2009,10,04,13,21,15.60
2009,10,04,13,22,15.60
2009,10,04,13,23,15.60
2009,10,04,13,24,15.60
2009,10,04,13,25,15.70
2009,10,04,13,26,15.70
2009,10,04,13,27,15.80
2009,10,04,13,28,16.00
2009,10,04,13,29,16.10
2009,10,04,13,30,16.20
2009,10,04,13,31,16.20
2009,10,04,13,32,16.10
2009,10,04,13,33,16.10
2009,10,04,13,34,16.10
2009,10,04,13,35,16.10
2009,10,04,13,36,16.10
2009,10,04,13,37,16.20
2009,10,04,13,38,16.20
2009,10,04,13,39,16.10
2009,10,04,13,40,16.10
2009,10,04,13,41,16.00
2009,10,04,13,42,16.00
2009,10,04,13,43,15.90
2009,10,04,13,44,15.90
2009,10,04,13,45,15.90
2009,10,04,13,46,15.90
2009,10,04,13,47,16.00
2009,10,04,13,48,16.00
2009,10,04,13,49,16.10
2009,10,04,13,50,16.10
2009,10,04,13,51,16.10
2009,10,04,13,52,16.10
2009,10,04,13,53,16.10
2009,10,04,13,54,16.20
2009,10,04,13,55,16.20
2009,10,04,13,56,16.20
2009,10,04,13,57,16.20
2009,10,04,13,58,16.30
2009,10,04,13,59,16.30
2009,10,04,14,00,16.30
2009,10,04,14,01,16.20
2009,10,04,14,02,16.20
2009,10,04,14,03,16.10
2009,10,04,14,04,16.20
2009,10,04,14,05,16.20
2009,10,04,14,06,16.20
2009,10,04,14,07,16.30
2009,10,04,14,08,16.30
2009,10,04,14,09,16.30
2009,10,04,14,10,16.30
2009,10,04,14,11,16.40
2009,10,04,14,12,16.30
2009,10,04,14,13,16.30
2009,10,04,14,14,16.30
2009,10,04,14,15,16.30
2009,10,04,14,16,16.30
2009,10,04,14,17,16.40
2009,10,04,14,18,16.40
2009,10,04,14,19,16.40
2009,10,04,14,20,16.50
2009,10,04,14,21,16.50
2009,10,04,14,22,16.60
2009,10,04,14,23,16.60
2009,10,04,14,24,16.60
2009,10,04,14,25,16.60
2009,10,04,14,26,16.60
2009,10,04,14,27,16.50
2009,10,04,14,28,16.40
2009,10,04,14,29,16.40
2009,10,04,14,30,16.40
2009,10,04,14,31,16.40
2009,10,04,14,32,16.40
2009,10,04,14,33,16.40
2009,10,04,14,34,16.40
2009,10,04,14,35,16.40
2009,10,04,14,36,16.40
2009,10,04,14,37,16.40
2009,10,04,14,38,16.40
2009,10,04,14,39,16.50
2009,10,04,14,40,16.50
2009,10,04,14,41,16.60
2009,10,04,14,42,16.60
2009,10,04,14,43,16.60
2009,10,04,14,44,16.60
2009,10,04,14,45,16.60
2009,10,04,14,46,16.60
2009,10,04,14,47,16.70
2009,10,04,14,48,16.70
2009,10,04,14,49,16.70
2009,10,04,14,50,16.70
2009,10,04,14,51,16.70
2009,10,04,14,52,16.70
2009,10,04,14,53,16.80
2009,10,04,14,54,16.90
2009,10,04,14,55,16.90
2009,10,04,14,56,17.00
2009,10,04,14,57,17.00
2009,10,04,14,58,17.00
2009,10,04,14,59,17.00
2009,10,04,15,00,17.10
2009,10,04,15,01,17.10
2009,10,04,15,02,17.10
2009,10,04,15,03,17.10
2009,10,04,15,04,17.10
2009,10,04,15,05,17.10
2009,10,04,15,06,17.10
2009,10,04,15,07,17.10
2009,10,04,15,08,17.10
2009,10,04,15,09,17.10
2009,10,04,15,10,17.10
2009,10,04,15,11,17.20
2009,10,04,15,12,17.20
2009,10,04,15,13,17.20
2009,10,04,15,14,17.20
2009,10,04,15,15,17.20
2009,10,04,15,16,17.20
2009,10,04,15,17,17.20
2009,10,04,15,18,17.20
2009,10,04,15,19,17.30
2009,10,04,15,20,17.30
2009,10,04,15,21,17.20
2009,10,04,15,22,17.30
2009,10,04,15,23,17.30
2009,10,04,15,24,17.30
2009,10,04,15,25,17.40
2009,10,04,15,26,17.40
2009,10,04,15,27,17.40
2009,10,04,15,28,17.30
2009,10,04,15,29,17.30
2009,10,04,15,30,17.30
2009,10,04,15,31,17.30
2009,10,04,15,32,17.30
2009,10,04,15,33,17.20
2009,10,04,15,34,17.10
2009,10,04,15,35,17.00
2009,10,04,15,36,17.00
2009,10,04,15,37,16.90
2009,10,04,15,38,17.00
2009,10,04,15,39,17.00
2009,10,04,15,40,17.00
2009,10,04,15,41,17.00
2009,10,04,15,42,17.10
2009,10,04,15,43,17.10
2009,10,04,15,44,17.20
2009,10,04,15,45,17.20
2009,10,04,15,46,17.20
2009,10,04,15,47,17.20
2009,10,04,15,48,17.20
2009,10,04,15,49,17.20
2009,10,04,15,50,17.20
2009,10,04,15,51,17.20
2009,10,04,15,52,17.20
2009,10,04,15,53,17.20
2009,10,04,15,54,17.20
2009,10,04,15,55,17.20
2009,10,04,15,56,17.30
2009,10,04,15,57,17.30
2009,10,04,15,58,17.40
2009,10,04,15,59,17.40
2009,10,04,16,00,17.50
2009,10,04,16,01,17.50
2009,10,04,16,02,17.60
2009,10,04,16,03,17.60
2009,10,04,16,04,17.60
2009,10,04,16,05,17.60
2009,10,04,16,06,17.60
2009,10,04,16,07,17.60
2009,10,04,16,08,17.60
2009,10,04,16,09,17.60
2009,10,04,16,10,17.60
2009,10,04,16,11,17.50
2009,10,04,16,12,17.40
2009,10,04,16,13,17.40
2009,10,04,16,14,17.40
2009,10,04,16,15,17.40
2009,10,04,16,16,17.40
2009,10,04,16,17,17.40
2009,10,04,16,18,17.50
2009,10,04,16,19,17.50
2009,10,04,16,20,17.60
2009,10,04,16,21,17.60
2009,10,04,16,22,17.70
2009,10,04,16,23,17.70
2009,10,04,16,24,17.70
2009,10,04,16,25,17.80
2009,10,04,16,26,17.80
2009,10,04,16,27,17.90
2009,10,04,16,28,17.90
2009,10,04,16,29,18.00
2009,10,04,16,30,18.10
2009,10,04,16,31,18.00
2009,10,04,16,32,17.90
2009,10,04,16,33,17.90
2009,10,04,16,34,17.90
2009,10,04,16,35,17.90
2009,10,04,16,36,17.90
2009,10,04,16,37,17.90
2009,10,04,16,38,17.80
2009,10,04,16,39,17.80
2009,10,04,16,40,17.80
2009,10,04,16,41,17.80
2009,10,04,16,42,17.80
2009,10,04,16,43,17.80
2009,10,04,16,44,17.80
2009,10,04,16,45,17.90
2009,10,04,16,46,17.90
2009,10,04,16,47,17.90
2009,10,04,16,48,17.90
2009,10,04,16,49,17.90
2009,10,04,16,50,17.90
2009,10,04,16,51,17.90
2009,10,04,16,52,17.90
2009,10,04,16,53,17.90
2009,10,04,16,54,18.00
2009,10,04,16,55,18.00
2009,10,04,16,56,18.10
2009,10,04,16,57,18.10
2009,10,04,16,58,18.10
2009,10,04,16,59,18.10
2009,10,04,17,00,18.10
2009,10,04,17,01,18.10
2009,10,04,17,02,18.10
2009,10,04,17,03,18.10
2009,10,04,17,04,18.10
2009,10,04,17,05,18.10
2009,10,04,17,06,18.00
2009,10,04,17,07,18.00
2009,10,04,17,08,18.00
2009,10,04,17,09,18.00
2009,10,04,17,10,18.00
2009,10,04,17,11,18.00
2009,10,04,17,12,18.10
2009,10,04,17,13,18.10
2009,10,04,17,14,18.10
2009,10,04,17,15,18.10
2009,10,04,17,16,18.10
2009,10,04,17,17,18.10
2009,10,04,17,18,18.10
2009,10,04,17,19,18.10
2009,10,04,17,20,18.10